Location: Gad�tanya
(48.0500°N, 20.8500°E)
Time: 17:09:09
(UTC+00:00)

Daily predictions for brighter satellites

Satellite Brightness Start Highest point End
(mag) Time Altitude Azimuth Time Altitude Azimuth Time Altitude Azimuth
CZ-2C R/B 3.2 19:07:29 10° N 19:12:53 65° WNW 19:18:07 10° SSW
Cosmos 1818 3.8 19:07:43 10° SSW 19:12:55 49° ESE 19:18:10 10° NE
Resurs 01 Rocket 1.8 19:10:28 10° S 19:14:53 75° WSW 19:19:19 10° NNW
SL-16 R/B 2.6 19:09:51 10° SW 19:15:31 72° WNW 19:21:13 10° NNE
Cosmos-2242 3.6 19:13:17 10° N 19:17:27 43° ENE 19:21:37 10° SSE
USA 215 3.9 19:15:34 10° ENE 19:21:21 32° SE 19:27:05 10° S
ERS-1 Rocket 3.8 19:17:33 10° SE 19:22:09 37° ENE 19:26:46 10° N
GEOS 3 Rocket 4.0 19:18:32 10° NE 19:23:42 44° ESE 19:28:49 10° SSW
Cosmos 2278 Rocket 3.8 19:20:40 10° N 19:25:12 24° NE 19:29:42 10° E
ATLAS 5 CENTAUR R/B 1.7 19:24:38 10° SSW 19:28:38 51° ESE 19:33:06 10° NE
Cosmos 1844 Rocket 2.7 19:25:12 10° NNW 19:30:49 84° ENE 19:36:23 10° SSE
USA 245 3.1 19:31:18 10° SSE 19:34:35 79° ENE 19:38:47 10° NNW
Meteor 2-10 Rocket 3.9 19:30:31 10° NNW 19:35:34 67° W 19:40:47 10° S
Cosmos 1758 Rocket 3.6 19:33:15 10° S 19:37:43 74° E 19:42:14 10° NNE
Cosmos 1400 Rocket 2.8 19:34:04 10° N 19:38:04 70° ENE 19:41:58 10° SSE
SPOT 5 3.5 19:34:47 10° SE 19:39:33 44° ENE 19:44:06 10° N
Spot 2 Rocket 3.6 19:37:17 10° SSE 19:42:23 86° WSW 19:47:32 10° NNW
Lacrosse 5 rocket 3.6 19:39:02 10° WNW 19:42:43 27° NNW 19:46:13 10° NE
BREEZE-M DEB (TANK) 4.1 19:39:17 10° SSW 19:43:17 20° SSE 19:45:21 10° ESE
Cosmos 2181 Rocket 4.4 19:37:24 10° N 19:43:36 51° ENE 19:49:24 11° SSE
ATLAS 5 CENTAUR R/B 4.2 19:43:00 10° W 19:45:01 16° NW 19:46:30 10° N
Cosmos 1745 Rocket 4.3 19:41:28 10° SSW 19:47:38 75° W 19:53:56 10° N
Landsat 7 3.9 19:43:25 10° SSE 19:48:11 82° WSW 19:52:59 10° NNW
USA 267 3.8 19:48:28 10° E 19:54:53 59° NNE 20:01:19 10° NW
SPOT 1/Viking Rocket 3.6 19:51:24 10° SSE 19:56:33 84° WSW 20:01:45 10° NNW
Cosmos 1953 Rocket 3.5 19:56:33 10° S 20:00:50 69° E 20:05:09 10° NNE
Alouette 2 Rocket 3.7 19:57:24 10° NNW 20:01:11 74° WSW 20:06:10 10° S
Cosmos 2322 Rocket 3.7 19:57:43 10° WSW 20:03:00 41° NW 20:08:19 10° NNE
Cosmos 1328 4.2 20:03:18 10° SSW 20:07:14 66° W 20:11:13 10° N
Cosmos 2084 3.8 20:03:34 10° NW 20:08:01 65° NE 20:11:33 16° SE
Cosmos 1842 Rocket 4.2 20:04:47 10° N 20:08:54 40° ENE 20:11:52 17° SE
SAR-Lupe-2 3.6 20:05:57 10° NNE 20:09:34 87° WNW 20:13:09 10° SSW
Cosmos 1455 4.0 20:08:46 10° NNW 20:12:05 28° W 20:15:24 10° SSW
Cosmos 1825 Rocket 4.2 20:12:15 10° SSW 20:16:37 56° WNW 20:21:02 10° N
ATLAS CENTAUR R/B 1.0 20:16:15 10° NW 20:19:58 78° NE 20:22:16 21° SE
COSMOS 2428 2.7 20:17:00 10° S 20:22:34 61° ESE 20:28:10 10° NNE
Cosmos 1844 4.4 20:19:15 10° NW 20:24:48 49° WSW 20:29:32 14° S
NOSS 3-4 (A) 4.4 20:18:26 10° NW 20:25:04 51° NE 20:32:23 10° ESE
NOSS 3-4 (C) 4.5 20:18:33 10° NW 20:25:11 50° NE 20:32:30 10° ESE
Cosmos 2322 3.8 20:20:47 10° SSW 20:26:31 81° WNW 20:32:17 10° NNE
NOSS 0 Rocket 4.5 20:23:36 15° SSE 20:28:05 38° ESE 20:33:42 10° NE
Meteor 1-27 4.3 20:25:26 10° NNW 20:31:11 84° W 20:35:45 17° S
Cosmos 1869 3.6 20:27:39 10° N 20:31:34 54° ENE 20:33:50 23° SSE
Terra 1.8 20:31:40 19° S 20:35:09 82° WSW 20:39:57 10° NNW
NOSS 3-3 (A) 3.9 20:29:24 10° SSW 20:35:13 72° SE 20:41:50 10° NE
NOSS 3-3 (C) 3.9 20:29:30 10° SSW 20:35:20 71° SE 20:41:57 10° NE
Cosmos 2237 Rocket 3.0 20:33:12 20° SSE 20:36:18 33° ESE 20:41:20 10° NE
CARTOSAT-1 4.3 20:32:57 14° S 20:36:24 48° W 20:40:36 10° NNW
Atlas Centaur 2 4.1 20:34:13 10° SW 20:38:01 16° S 20:38:47 16° S
Cosmos 2219 Rocket 2.1 20:33:03 10° SSW 20:38:39 88° ESE 20:44:18 10° NNE
Cosmos 2360 Rocket 3.7 20:35:39 10° WSW 20:40:54 39° NW 20:46:13 10° NNE
Cosmos 1538 Rocket 4.0 20:36:00 10° SSW 20:41:23 89° NW 20:46:45 10° NNE
DELTA 2 R/B (1) 4.5 20:41:58 10° SW 20:46:30 26° SSE 20:49:12 18° ESE
Cosmos 2184 Rocket 4.0 20:42:26 17° S 20:47:17 72° E 20:53:35 10° NNE
Cosmos 2333 Rocket 2.4 20:42:48 10° SSW 20:48:29 76° WNW 20:54:16 10° NNE
Meteor 2-2 Rocket 4.3 20:43:24 10° N 20:49:17 82° ENE 20:53:04 22° SSE
Thor Agena Rocket 4.3 20:45:47 10° NNE 20:50:27 34° E 20:52:43 23° SE
Cosmos 1315 Rocket 3.5 20:47:37 10° NNW 20:51:36 49° W 20:54:13 20° SSW
ATLAS 2AS CENTAUR R/B 3.2 20:45:32 10° NW 20:53:10 63° NE 20:59:01 16° ESE
Cosmos 2221 2.6 20:55:41 10° NNW 21:00:05 73° W 21:02:29 26° S
ERS-1 Rocket 4.3 20:56:51 12° SSW 21:00:58 33° W 21:05:31 10° NNW
USA 215 3.3 20:58:15 10° NE 21:04:51 88° NNW 21:11:25 10° WSW
Iridium 2 4.3 21:02:31 10° N 21:06:13 45° E 21:07:33 31° SE
Cosmos 1892 2.6 21:07:02 33° S 21:08:38 78° E 21:12:27 10° NNE
EO 1 Del DPAF 3.9 21:05:34 10° NNE 21:09:06 37° E 21:09:59 32° SE
Cosmos 2278 Rocket 2.2 21:04:14 10° NNW 21:09:56 77° WSW 21:13:09 27° SSE
Cosmos 2112 Rocket 4.3 21:08:05 26° SSE 21:10:50 51° ESE 21:16:01 10° NNE
ATLAS 5 CENTAUR R/B 3.7 21:09:41 10° W 21:13:30 30° NNW 21:17:49 10° NNE
Cosmos 158 Rocket 3.9 21:13:11 28° S 21:15:33 57° ESE 21:20:22 10° NNE
Cosmos 1606 4.2 21:12:36 10° NNE 21:15:54 26° ENE 21:17:19 21° ESE
Aureole 2 Rocket 3.8 21:13:58 10° N 21:16:16 22° ENE 21:17:00 20° E
Gblst 52 Del rocket 4.5 21:11:12 10° WNW 21:16:53 58° SSW 21:20:33 25° SE
Cosmos 1943 Rocket 4.0 21:13:11 10° N 21:17:51 25° NE 21:22:28 10° E
SL-16 R/B 3.3 21:18:55 24° SE 21:20:40 28° ESE 21:25:24 10° NE
Spot 4 3.8 21:20:00 30° SSE 21:22:19 75° ENE 21:27:07 10° N
Lacrosse 5 rocket 3.6 21:19:27 10° NW 21:22:52 24° N 21:26:06 10° ENE
Cosmos 2056 Rocket 3.8 21:19:19 10° NNW 21:24:43 66° ENE 21:27:39 27° SE
Nadezhda 3 Rocket 4.0 21:18:59 10° N 21:25:24 84° W 21:29:11 26° S
Cosmos 2154 Rocket 4.0 21:23:04 23° S 21:27:08 90° W 21:33:24 10° N
Cosmos 2058 3.1 21:25:00 27° SSW 21:27:09 68° W 21:31:18 10° N
Cosmos 1408 2.4 21:29:06 45° S 21:30:08 86° E 21:33:44 10° N
Cosmos 2341 Rocket 4.2 21:26:53 27° SSE 21:30:11 56° E 21:36:14 10° NNE
In-Cosmos 22 Rocket 4.4 21:29:55 20° SSW 21:33:38 64° WNW 21:38:56 10° N
TSX-5 4.5 21:33:11 10° NW 21:36:32 39° WSW 21:37:36 32° SSW
USA 267 3.4 21:34:05 26° SSE 21:37:55 61° SW 21:44:25 10° WNW
Cosmos 1076 Rocket 3.9 21:36:08 26° SSW 21:38:23 59° WNW 21:42:38 10° N
Cosmos 1680 Rocket 3.5 21:35:41 22° SSW 21:39:10 84° WNW 21:44:33 10° NNE
CZ-4C R/B 4.2 21:40:19 10° NW 21:46:31 36° NNE 21:53:41 10° E
Cosmos 2151 2.9 21:47:18 41° S 21:48:46 80° E 21:53:04 10° NNE
EO 1 Delta rocket 4.3 21:44:18 10° N 21:49:21 83° W 21:52:50 26° SSW
SL-8 Rocket 4.2 21:46:21 30° SSE 21:49:23 58° E 21:55:25 10° NNE
Helios 1A 4.1 21:48:16 24° ESE 21:50:01 34° ENE 21:53:48 10° N
COSMOS 2455 3.8 21:44:26 10° NNW 21:50:14 44° NE 21:55:18 13° ESE
Cosmos 1452 Rocket 4.4 21:46:39 10° NNW 21:51:41 43° ENE 21:54:48 21° ESE
ATLAS CENTAUR R/B 3.5 21:57:20 10° W 21:58:14 11° WSW 21:58:26 11° WSW
Cosmos 1825 2.3 21:58:09 41° SW 21:59:16 65° W 22:03:04 10° N
ALOS 2 2.5 21:58:03 41° SSE 21:59:34 88° ENE 22:03:59 10° NNW
Cosmos 1408 Rocket 4.3 21:58:51 33° SE 22:00:00 41° E 22:04:09 10° NNE
Cosmos 1340 3.3 21:59:38 36° ESE 22:00:08 38° E 22:03:40 10° NNE
Cosmos 1933 3.5 21:57:18 10° N 22:01:18 61° ENE 22:02:24 42° SE
Cosmos 1980 4.2 21:56:55 13° SW 22:01:49 58° WNW 22:07:25 10° NNE
Cosmos 1151 Rocket 3.1 21:57:30 10° N 22:01:51 68° E 22:03:13 41° SSE
Cosmos 2369 Rocket 3.5 21:57:17 10° NNW 22:02:23 34° NE 22:07:04 12° ESE
IRIDIUM 103 4.4 22:01:14 35° SSE 22:03:23 66° E 22:08:34 10° N
APEX 3.7 22:02:18 10° NNW 22:04:49 32° NE 22:05:07 31° ENE
Cosmos 44 3.1 22:05:14 45° S 22:06:15 58° ESE 22:10:36 10° NE
Cosmos 371 Rocket 3.4 22:04:54 10° NNW 22:09:47 73° ENE 22:11:47 35° SE
GP-B 3.0 22:05:28 10° N 22:09:56 87° E 22:11:23 43° S
Terra 4.3 22:12:40 10° W 22:13:39 11° W 22:14:39 10° WNW
Cosmos 1624 Rocket 4.4 22:10:01 10° NNW 22:15:04 49° WSW 22:16:57 33° SSW
NOSS 3-4 (A) 4.2 22:09:23 10° NW 22:16:09 51° WSW 22:19:47 29° S
NOSS 3-4 (C) 4.2 22:09:29 10° NW 22:16:16 51° WSW 22:19:55 29° S
Helios 1B rocket 4.2 22:15:12 10° NE 22:18:16 20° E 22:19:04 19° ESE
SL-4 R/B 2.8 22:19:54 25° N 22:19:54 25° N 22:20:57 10° N
Nimbus 7 Rocket 4.4 22:13:10 10° NNE 22:19:08 80° WNW 22:22:22 28° SSW
Cosmos 2237 Rocket 3.1 22:14:58 11° SW 22:20:12 47° NW 22:25:43 10° NNE
Genesis I 4.0 22:18:36 20° WSW 22:21:03 49° NW 22:24:52 10° NNE
IRIDIUM 106 4.3 22:19:31 37° S 22:21:41 87° W 22:26:57 10° N
Cosmos 1782 3.5 22:18:39 10° N 22:22:27 44° ENE 22:23:34 34° ESE
CREW DRAGON DEMO-1 DEB 2.8 22:22:53 78° NE 22:22:53 78° NE 22:25:47 10° ENE
Cosmos 2344 3.6 22:16:02 12° SW 22:23:06 84° NW 22:31:23 10° NE
Cosmos 1346 Rocket 3.1 22:28:04 44° SE 22:28:46 51° E 22:32:35 10° NNE
RESURS DK-1 3.8 22:36:51 10° NNW 22:40:39 34° NE 22:43:23 16° ESE
Cosmos 1515 Rocket 3.5 22:37:39 10° NNW 22:42:01 81° W 22:43:15 47° S
BREEZE-M DEB (TANK) 3.6 22:40:25 10° W 22:41:22 17° W 22:41:22 17° W
CZ-4 R/B 4.4 22:38:36 10° NNE 22:43:07 45° E 22:44:35 34° SE
ATLAS 2AS CENTAUR R/B 3.5 22:37:06 10° NW 22:43:46 37° WSW 22:46:24 28° SSW
Cosmos 1766 Rocket 4.4 22:44:24 28° SW 22:46:09 41° WNW 22:50:21 10° N
USA 215 4.3 22:41:20 10° ENE 22:47:32 47° NNW 22:53:44 10° W
Cosmos 1328 Rocket 4.3 22:45:15 10° NNW 22:49:18 41° W 22:50:25 34° SW
Gbstr 26 Del rocket 2.8 22:49:28 54° SSE 22:49:41 55° SSE 22:53:50 10° ENE
Aureole 2 Rocket 4.2 22:47:41 10° WNW 22:48:59 17° W 22:48:59 17° W
Cosmos 1606 4.1 22:48:15 10° NNW 22:51:34 27° W 22:52:19 25° WSW
Cosmos 44 Rocket 4.5 22:51:44 24° SE 22:52:22 25° ESE 22:56:13 10° ENE
Cosmos 2278 Rocket 4.3 22:50:46 10° WNW 22:53:01 12° W 22:54:59 11° WSW
Cosmos 2218 Rocket 4.4 22:50:54 27° SSW 22:54:23 59° WNW 23:00:38 10° N
Cosmos 2297 4.3 22:49:57 10° NW 22:55:18 41° WSW 22:57:11 31° SSW
Cosmos 304 Rocket 3.7 22:51:22 10° NNW 22:56:13 87° WSW 22:58:04 38° SSE
Cosmos 2228 Rocket 3.1 22:53:07 10° N 22:57:44 81° E 22:59:19 41° SSE
Cosmos 1943 4.0 22:56:06 28° SSE 22:58:09 38° ESE 23:03:19 10° NE
Cosmos 1862 4.1 22:58:33 33° SE 22:59:31 39° E 23:03:14 10° NNE
Cosmos 2366 rocket 4.4 22:56:35 26° SW 23:00:05 56° WNW 23:06:21 10° N
Cosmos 1633 2.6 23:01:11 55° SW 23:01:47 68° W 23:05:25 10° N
Cosmos 494 Rocket 4.5 23:00:18 33° SSE 23:02:07 47° ESE 23:07:04 10° NNE
Cosmos 1943 Rocket 2.2 22:56:30 10° NNW 23:02:10 72° WSW 23:04:40 34° S
Lacrosse 5 rocket 1.8 22:58:46 10° NW 23:02:42 54° NNE 23:06:18 11° ESE
Landsat 4 3.7 22:59:20 10° N 23:03:07 76° WNW 23:03:59 51° SW
CRYOSAT 2 4.4 22:58:43 10° N 23:03:35 69° E 23:05:26 37° SSE
SL-16 R/B 2.8 23:00:47 21° SW 23:04:27 54° WNW 23:10:03 10° NNE
Cosmos 1821 Rocket 3.9 23:05:52 32° S 23:08:52 77° E 23:14:58 10° NNE
Cosmos 2123 Rocket 4.4 23:05:23 10° N 23:11:30 57° ENE 23:15:27 22° SSE
BREEZE-M DEB (TANK) 4.3 23:03:16 10° SW 23:13:21 42° SSE 23:17:08 10° E
Cosmos 1743 Rocket 3.6 23:12:36 41° SW 23:13:57 66° W 23:18:18 10° N
Sich 1 3.7 23:15:28 32° SE 23:16:54 45° E 23:21:04 10° NNE
Cosmos 1331 Rocket 4.0 23:15:25 10° NNW 23:20:47 84° ENE 23:23:39 28° SSE
Cosmos 1048 Rocket 4.0 23:19:32 33° SSW 23:21:58 78° WNW 23:27:16 10° NNE
Helios 1A 4.3 23:24:53 24° WSW 23:25:38 25° W 23:29:07 10° NW
Meteor 1-29 3.0 23:25:16 10° NNE 23:28:38 66° ESE 23:29:10 54° SSE
Cosmos 405 4.1 23:25:44 10° NNW 23:28:53 30° W 23:29:08 30° WSW
SL-4 R/B 3.5 23:32:31 15° ESE 23:32:31 15° ESE 23:33:54 10° ENE
Meteor 1-10 Rocket 4.1 23:27:31 10° NNW 23:33:07 78° W 23:35:50 31° S
PSLV R/B 3.8 23:30:51 10° N 23:35:00 57° WNW 23:36:34 34° SW
Meteor 2-6 Rocket 4.2 23:30:05 10° NNW 23:35:31 62° W 23:37:53 33° SSW
Cosmos 389 Rocket 3.2 23:32:23 10° N 23:35:49 48° ENE 23:37:05 31° SE
CZ-4C R/B 2.9 23:28:40 10° NW 23:35:51 85° SW 23:44:09 10° SE
COSMOS 2455 3.3 23:30:32 10° NW 23:36:10 42° WSW 23:38:24 30° SSW
SL-16 R/B 3.2 23:31:34 12° SE 23:37:13 53° ENE 23:43:17 10° N
Cosmos 1110 Rocket 4.0 23:32:37 10° NNW 23:37:52 65° WSW 23:40:15 32° S
Cosmos 1603 3.7 23:36:25 31° SSW 23:39:16 89° ESE 23:45:02 10° NNE
IRAS Rocket 4.3 23:37:09 21° SSE 23:40:52 73° ENE 23:46:22 10° NNW
Cosmos 1269 Rocket 4.2 23:39:59 32° S 23:42:23 65° ESE 23:47:38 10° NNE
Resurs 1-4 Rocket 3.1 23:40:39 10° NNE 23:45:38 38° E 23:48:45 20° SSE
Cosmos 1666 Rocket 3.8 23:44:14 33° SSE 23:46:04 63° E 23:50:26 10° NNE
Cosmos 2369 Rocket 2.5 23:41:14 10° NW 23:46:34 46° WSW 23:48:49 30° SSW
SeaSat 1 2.9 23:44:19 10° NE 23:49:07 49° ESE 23:51:20 29° S
ISS -3.2 23:51:00 39° SE 23:51:00 39° SE 23:54:05 10° ENE
Meteor 2-20 Rocket 4.5 23:45:01 10° N 23:51:11 84° E 23:55:17 23° SSE
Helios 1B rocket 3.2 23:49:49 10° N 23:53:44 43° WNW 23:55:23 28° WSW
